• Em Portugal
  • Lista de países
  • Para 7 dias
  • Temperatura da água
  • Mapas de satélite
  • Mapa do tempo
  • Widgets de tempo
  • user-avatar
    Iniciar Sessão

    Previsão horária em Kruszki

    Hoje, 22 Junho, Sexta-feira

    Tempo Temperatura Precipitação Vento Pressão Humidade
    00:00 +12°C° 0 mm 5 m/s 733 mmHg 94%
    01:00 +10°C° 0 mm 5 m/s 734 mmHg 94%
    02:00 +9°C° 0 mm 3 m/s 734 mmHg 95%
    03:00 +8°C° 0 mm 4 m/s 734 mmHg 94%
    04:00 +8°C° 0 mm 4 m/s 735 mmHg 94%
    05:00 +7°C° 0 mm 5 m/s 735 mmHg 93%
    06:00 +8°C° 0 mm 5 m/s 735 mmHg 88%
    07:00 +9°C° 0 mm 6 m/s 736 mmHg 83%
    08:00 +12°C° 0 mm 5 m/s 736 mmHg 77%
    09:00 +13°C° 0 mm 6 m/s 736 mmHg 71%
    10:00 +14°C° 0 mm 6 m/s 736 mmHg 65%
    11:00 +14°C° 0 mm 6 m/s 737 mmHg 59%
    12:00 +15°C° 0 mm 6 m/s 737 mmHg 57%
    13:00 +16°C° 0 mm 6 m/s 737 mmHg 55%
    14:00 +16°C° 0 mm 7 m/s 737 mmHg 53%
    15:00 +16°C° 0 mm 6 m/s 737 mmHg 55%
    16:00 +16°C° 0 mm 6 m/s 738 mmHg 57%
    17:00 +15°C° 0 mm 6 m/s 738 mmHg 58%
    18:00 +14°C° 0 mm 4 m/s 738 mmHg 64%
    19:00 +13°C° 0 mm 3 m/s 738 mmHg 70%
    20:00 +14°C° 0 mm 2 m/s 738 mmHg 76%
    21:00 +12°C° 0 mm 2 m/s 738 mmHg 80%
    22:00 +10°C° 0 mm 2 m/s 738 mmHg 83%
    23:00 +9°C° 0 mm 2 m/s 738 mmHg 87%

    Amanhã, 23 Junho, Sábado

    Tempo Temperatura Precipitação Vento Pressão Humidade
    00:00 +9°C° 0 mm 2 m/s 738 mmHg 87%
    01:00 +8°C° 0 mm 2 m/s 738 mmHg 88%
    02:00 +8°C° 0 mm 2 m/s 738 mmHg 89%
    03:00 +8°C° 0 mm 2 m/s 738 mmHg 89%
    04:00 +8°C° 0 mm 2 m/s 738 mmHg 90%
    05:00 +8°C° 0 mm 2 m/s 738 mmHg 90%
    06:00 +10°C° 0 mm 2 m/s 738 mmHg 83%
    07:00 +12°C° 0 mm 2 m/s 738 mmHg 77%
    08:00 +13°C° 0 mm 3 m/s 738 mmHg 70%
    09:00 +14°C° 0,1 mm 3 m/s 738 mmHg 67%
    10:00 +16°C° 0,1 mm 3 m/s 738 mmHg 63%
    11:00 +17°C° 0,1 mm 3 m/s 738 mmHg 59%
    12:00 +17°C° 0,5 mm 3 m/s 737 mmHg 61%
    13:00 +17°C° 0,5 mm 3 m/s 737 mmHg 63%
    14:00 +17°C° 0,5 mm 3 m/s 737 mmHg 65%
    15:00 +17°C° 0,6 mm 3 m/s 737 mmHg 69%
    16:00 +16°C° 0,6 mm 3 m/s 737 mmHg 73%
    17:00 +16°C° 0,6 mm 3 m/s 736 mmHg 77%
    18:00 +14°C° 0,4 mm 3 m/s 736 mmHg 81%
    19:00 +13°C° 0,4 mm 3 m/s 736 mmHg 85%
    20:00 +12°C° 0,4 mm 3 m/s 736 mmHg 89%
    21:00 +11°C° 0,1 mm 3 m/s 737 mmHg 91%
    22:00 +9°C° 0,1 mm 3 m/s 737 mmHg 93%
    23:00 +8°C° 0,1 mm 3 m/s 737 mmHg 94%

    Depois de amanhã, 24 Junho, Domingo

    Tempo Temperatura Precipitação Vento Pressão Humidade
    00:00 +8°C° 0 mm 3 m/s 737 mmHg 94%
    01:00 +7°C° 0 mm 3 m/s 737 mmHg 94%
    02:00 +7°C° 0 mm 3 m/s 737 mmHg 95%
    03:00 +7°C° 0 mm 3 m/s 737 mmHg 95%
    04:00 +5°C° 0 mm 3 m/s 737 mmHg 95%
    05:00 +5°C° 0 mm 3 m/s 737 mmHg 95%
    06:00 +8°C° 0 mm 3 m/s 737 mmHg 90%
    07:00 +10°C° 0 mm 3 m/s 737 mmHg 86%
    08:00 +11°C° 0 mm 3 m/s 738 mmHg 81%
    09:00 +12°C° 0,2 mm 3 m/s 738 mmHg 76%
    10:00 +14°C° 0,2 mm 3 m/s 738 mmHg 71%
    11:00 +16°C° 0,2 mm 3 m/s 738 mmHg 66%
    12:00 +15°C° 0,3 mm 4 m/s 738 mmHg 67%
    13:00 +15°C° 0,3 mm 4 m/s 738 mmHg 68%
    14:00 +15°C° 0,3 mm 4 m/s 738 mmHg 69%
    15:00 +15°C° 0,3 mm 4 m/s 738 mmHg 71%
    16:00 +15°C° 0,3 mm 4 m/s 738 mmHg 73%
    17:00 +15°C° 0,3 mm 4 m/s 738 mmHg 75%
    18:00 +14°C° 0,1 mm 4 m/s 738 mmHg 79%
    19:00 +13°C° 0,1 mm 3 m/s 738 mmHg 84%
    20:00 +13°C° 0,1 mm 2 m/s 739 mmHg 88%
    21:00 +12°C° 0 mm 2 m/s 739 mmHg 90%
    22:00 +10°C° 0 mm 2 m/s 739 mmHg 93%
    23:00 +9°C° 0 mm 2 m/s 739 mmHg 95%

    25 Junho, Segunda-feira

    Tempo Temperatura Precipitação Vento Pressão Humidade
    00:00 +8°C° 0 mm 2 m/s 740 mmHg 95%
    01:00 +8°C° 0 mm 2 m/s 740 mmHg 96%
    02:00 +8°C° 0 mm 2 m/s 740 mmHg 96%
    03:00 +8°C° 0 mm 2 m/s 740 mmHg 96%
    04:00 +8°C° 0 mm 2 m/s 740 mmHg 95%
    05:00 +8°C° 0 mm 2 m/s 740 mmHg 95%
    06:00 +9°C° 0 mm 2 m/s 741 mmHg 89%
    07:00 +12°C° 0 mm 2 m/s 741 mmHg 84%
    08:00 +13°C° 0 mm 2 m/s 741 mmHg 78%
    09:00 +15°C° 0 mm 2 m/s 742 mmHg 70%
    10:00 +16°C° 0 mm 2 m/s 742 mmHg 62%
    11:00 +18°C° 0 mm 2 m/s 742 mmHg 54%
    12:00 +18°C° 0,1 mm 2 m/s 742 mmHg 54%
    13:00 +19°C° 0,1 mm 3 m/s 742 mmHg 53%
    14:00 +20°C° 0,1 mm 3 m/s 742 mmHg 52%
    15:00 +20°C° 0,1 mm 3 m/s 742 mmHg 55%
    16:00 +19°C° 0,1 mm 3 m/s 742 mmHg 57%
    17:00 +19°C° 0,1 mm 3 m/s 742 mmHg 59%
    18:00 +18°C° 0,1 mm 3 m/s 742 mmHg 66%
    19:00 +17°C° 0,1 mm 2 m/s 742 mmHg 73%
    20:00 +16°C° 0,1 mm 1 m/s 742 mmHg 80%
    21:00 +15°C° 0 mm 2 m/s 743 mmHg 83%
    22:00 +14°C° 0 mm 2 m/s 743 mmHg 86%
    23:00 +13°C° 0 mm 2 m/s 743 mmHg 90%

    26 Junho, Terça-feira

    Tempo Temperatura Precipitação Vento Pressão Humidade
    00:00 +13°C° 0 mm 2 m/s 743 mmHg 90%
    01:00 +12°C° 0 mm 2 m/s 743 mmHg 90%
    02:00 +12°C° 0 mm 2 m/s 743 mmHg 91%
    03:00 +12°C° 0,3 mm 2 m/s 743 mmHg 92%
    04:00 +12°C° 0,3 mm 2 m/s 743 mmHg 92%
    05:00 +12°C° 0,3 mm 2 m/s 744 mmHg 93%
    06:00 +13°C° 0,1 mm 2 m/s 744 mmHg 89%
    07:00 +14°C° 0,1 mm 2 m/s 744 mmHg 85%
    08:00 +15°C° 0,1 mm 2 m/s 744 mmHg 81%
    09:00 +16°C° 0,1 mm 3 m/s 744 mmHg 78%
    10:00 +18°C° 0,1 mm 3 m/s 744 mmHg 74%
    11:00 +19°C° 0,1 mm 3 m/s 744 mmHg 71%
    12:00 +19°C° 0,4 mm 3 m/s 744 mmHg 71%
    13:00 +19°C° 0,4 mm 3 m/s 744 mmHg 71%
    14:00 +20°C° 0,4 mm 4 m/s 744 mmHg 71%
    15:00 +20°C° 0,4 mm 4 m/s 743 mmHg 73%
    16:00 +19°C° 0,4 mm 4 m/s 743 mmHg 75%
    17:00 +19°C° 0,4 mm 4 m/s 743 mmHg 77%
    18:00 +18°C° 0,3 mm 4 m/s 743 mmHg 80%
    19:00 +17°C° 0,3 mm 4 m/s 743 mmHg 83%
    20:00 +17°C° 0,3 mm 4 m/s 743 mmHg 86%
    21:00 +14°C° 0 mm 3 m/s 743 mmHg 88%
    22:00 +13°C° 0 mm 3 m/s 743 mmHg 91%
    23:00 +12°C° 0 mm 3 m/s 743 mmHg 93%

    27 Junho, Quarta-feira

    Tempo Temperatura Precipitação Vento Pressão Humidade
    00:00 +11°C° 0 mm 3 m/s 743 mmHg 94%
    01:00 +11°C° 0 mm 3 m/s 743 mmHg 95%
    02:00 +10°C° 0 mm 2 m/s 743 mmHg 95%
    03:00 +10°C° 0 mm 2 m/s 743 mmHg 95%
    04:00 +10°C° 0 mm 2 m/s 743 mmHg 95%
    05:00 +10°C° 0 mm 2 m/s 743 mmHg 95%
    06:00 +11°C° 0 mm 3 m/s 744 mmHg 90%
    07:00 +13°C° 0 mm 3 m/s 744 mmHg 85%
    08:00 +16°C° 0 mm 3 m/s 744 mmHg 80%
    09:00 +17°C° 0 mm 4 m/s 744 mmHg 74%
    10:00 +19°C° 0 mm 4 m/s 744 mmHg 68%
    11:00 +20°C° 0 mm 4 m/s 744 mmHg 62%
    12:00 +21°C° 0,1 mm 5 m/s 744 mmHg 61%
    13:00 +21°C° 0,1 mm 5 m/s 743 mmHg 60%
    14:00 +22°C° 0,1 mm 5 m/s 743 mmHg 59%
    15:00 +22°C° 0,1 mm 5 m/s 743 mmHg 60%
    16:00 +22°C° 0,1 mm 5 m/s 743 mmHg 61%
    17:00 +22°C° 0,1 mm 5 m/s 743 mmHg 62%
    18:00 +20°C° 0 mm 4 m/s 743 mmHg 67%
    19:00 +19°C° 0 mm 4 m/s 743 mmHg 73%
    20:00 +18°C° 0 mm 3 m/s 743 mmHg 78%
    21:00 +17°C° 0 mm 3 m/s 744 mmHg 82%
    22:00 +14°C° 0 mm 3 m/s 744 mmHg 86%
    23:00 +13°C° 0 mm 3 m/s 744 mmHg 90%
    Mostrar mais